Location: Krakow
(50.0830°N, 19.9170°E)
Time: 07:37:16
(UTC+02:00)

A-11 Canister half - Pass Details

Date: 24 March 2026
Orbit: 1523 x 1684 km, 47.3° (Epoch: 18 April)

Event Time Altitude Azimuth Distance (km) Brightness Sun altitude
Rises 09:52:24 0° 267° (W) 4,893 11.4 35.7°
Reaches altitude 10° 09:55:34 10° 266° (W) 3,888 10.9 36.0°
Maximum altitude 10:05:28 77° 183° (S) 1,646 10.1 36.9°
Drops below altitude 10° 10:15:00 10° 100° (E) 3,758 11.7 37.6°
Sets 10:18:01 0° 99° (E) 4,723 12.0 37.9°
